{"data":{"norad_id":43566,"intl_designator":"2018-060C","name":"GSAT0219 (GALILEO 23)","alt_names":[],"object_type":"PAYLOAD","status":"ACTIVE","operator":null,"country":"ESA","launch_date":"2018-07-25","launch_site_code":"FRGUI","launch_vehicle":null,"mission":null,"orbit_class":"UNKNOWN","rcs_meters":null,"size_class":null,"mass_kg":null,"dimensions":null,"purposes":["earth_obs","nav"],"wikipedia_slug":null,"has_3d_model":false,"image_url":null,"decayed_at":null,"tle_current":{"epoch":"2026-05-22T02:37:20.420832Z","epoch_age_seconds":331616,"freshness":"STALE","line1":"1 43566U 18060C   26142.10926413 -.00000087  00000+0  00000+0 0  9994","line2":"2 43566  57.1804 342.4893 0002684 333.4673  26.5384  1.70475765 48746","mean_motion":1.70475765,"eccentricity":0.0002684,"inclination_deg":57.1804,"raan_deg":342.4893,"arg_perigee_deg":333.4673,"mean_anomaly_deg":26.5384,"bstar":0,"rev_number":4874,"period_min":844.69484562806,"perigee_km":23214.034077281,"apogee_km":23229.923419415,"semimajor_km":29600.115748348,"source":"CELESTRAK","updated_at":"2026-05-25T13:38:24.060911Z"}}}